Blue Canyon, CA

3:49 AM PDT on September 21, 2017 (GMT -0700)
Blue Canyon-Nyack

Weather History for KBLU - June, 2013

Change the Weather History Date:

Thursday, June 27, 2013

  Actual Average Record
Temperature  
Mean Temperature 69 °F -  
Max Temperature 79 °F 74 °F 89 °F (1973)
Min Temperature 60 °F 56 °F 42 °F (1971)
Cooling Degree Days 4    
Growing Degree Days 19 (Base 50)    
Moisture  
Dew Point 53 °F    
Average Humidity 56    
Maximum Humidity 75    
Minimum Humidity 34    
Precipitation  
Precipitation 0.00 in - - ()
Sea Level Pressure  
Sea Level Pressure 30.24 in    
Wind  
Wind Speed 4 mph (SE)    
Max Wind Speed 8 mph    
Max Gust Speed -    
Visibility 10 miles    
Events      
Averages and records for this station are not official NWS values.
T = Trace of Precipitation, MM = Missing Value Source: NWS Daily Summary

Daily Weather History Graph

Daily Weather History Graph

Search for Another Location

Airport or City:

Trip Planner

Search our weather history database for the weather conditions in past years. The results will help you decide how hot, cold, wet, or windy it might be!

Date:

Astronomy

Jun. 27, 2013 Rise Set
Actual Time 5:38 AM PDT 8:33 PM PDT
Civil Twilight 5:06 AM PDT 9:05 PM PDT
Nautical Twilight 4:25 AM PDT 9:46 PM PDT
Astronomical Twilight 3:38 AM PDT 10:33 PM PDT
Moon 11:35 PM PDT (6/27) 10:43 AM PDT (6/27)
Length of Visible Light 15h 59m
Length of Day
14h 54m
Waning Gibbous, 75% of the Moon is Illuminated
Jun 27
Waning Gibbous
Jun 29
Last Quarter
Jul 8
New
Jul 15
First Quarter
Jul 22
Full

Hourly Weather History & Observations

Time (PDT) Temp. Dew Point Humidity Pressure Visibility Wind Dir Wind Speed Gust Speed Precip Events Conditions
12:52 AM 63.0 °F 53.1 °F 70% 30.03 in 10.0 mi ESE 3.5 mph - N/A   Clear
12:55 AM 62.6 °F 53.6 °F 72% 30.42 in 10.0 mi East 3.5 mph - N/A   Clear
1:52 AM 63.0 °F 53.1 °F 70% 30.04 in 10.0 mi Calm Calm - N/A   Clear
1:55 AM 62.6 °F 53.6 °F 72% 30.42 in 10.0 mi SE 3.5 mph - N/A   Clear
2:52 AM 62.1 °F 54.0 °F 75% 30.04 in 10.0 mi ESE 3.5 mph - N/A   Clear
2:55 AM 62.6 °F 53.6 °F 72% 30.42 in 10.0 mi ESE 3.5 mph - N/A   Clear
3:52 AM 61.0 °F 52.0 °F 72% 30.03 in 10.0 mi ESE 3.5 mph - N/A   Clear
3:55 AM 60.8 °F 51.8 °F 72% 30.42 in 10.0 mi ESE 3.5 mph - N/A   Clear
4:52 AM 62.1 °F 51.1 °F 67% 30.04 in 10.0 mi ESE 3.5 mph - N/A   Clear
4:55 AM 60.8 °F 51.8 °F 72% 30.42 in 10.0 mi ESE 3.5 mph - N/A   Clear
5:52 AM 62.1 °F 53.1 °F 72% 30.04 in 10.0 mi ESE 3.5 mph - N/A   Clear
5:55 AM 62.6 °F 53.6 °F 72% 30.42 in 10.0 mi ESE 3.5 mph - N/A   Clear
6:52 AM 64.0 °F 55.0 °F 73% 30.04 in 10.0 mi ESE 3.5 mph - N/A   Clear
6:55 AM 64.4 °F 55.4 °F 73% 30.42 in 10.0 mi ESE 3.5 mph - N/A   Clear
7:52 AM 66.9 °F 54.0 °F 63% 30.05 in 10.0 mi SE 4.6 mph - N/A   Clear
7:55 AM 66.2 °F 55.4 °F 68% 30.42 in 10.0 mi SE 4.6 mph - N/A   Clear
8:52 AM 70.0 °F 53.1 °F 55% 30.06 in 10.0 mi SSE 5.8 mph - N/A   Clear
8:55 AM 69.8 °F 53.6 °F 56% 30.42 in 10.0 mi SSE 4.6 mph - N/A   Clear
9:52 AM 71.1 °F 54.0 °F 55% 30.07 in 10.0 mi South 8.1 mph - N/A   Clear
9:55 AM 69.8 °F 53.6 °F 56% 30.42 in 10.0 mi SSE 6.9 mph - N/A   Clear
10:52 AM 71.1 °F 54.0 °F 55% 30.09 in 10.0 mi South 6.9 mph - N/A   Clear
10:55 AM 71.6 °F 53.6 °F 53% 30.42 in 10.0 mi South 6.9 mph - N/A   Clear
11:52 AM 73.9 °F 48.9 °F 41% 30.08 in 10.0 mi SW 5.8 mph - N/A   Clear
11:55 AM 73.4 °F 48.2 °F 41% 30.42 in 10.0 mi South 6.9 mph - N/A   Clear
12:52 PM 75.0 °F 45.0 °F 34% 30.08 in 10.0 mi Variable 3.5 mph - N/A   Clear
12:55 PM 75.2 °F 44.6 °F 34% 30.42 in 10.0 mi Calm Calm - N/A   Clear
1:52 PM 75.9 °F 57.9 °F 54% 30.07 in 10.0 mi West 5.8 mph - N/A   Clear
1:55 PM 75.2 °F 57.2 °F 53% 30.42 in 10.0 mi West 3.5 mph - N/A   Clear
2:52 PM 77.0 °F 55.9 °F 48% 30.07 in 10.0 mi WSW 6.9 mph - N/A   Clear
2:55 PM 77.0 °F 55.4 °F 47% 30.42 in 10.0 mi Variable 5.8 mph - N/A   Clear
3:52 PM 78.1 °F 52.0 °F 40% 30.07 in 10.0 mi Variable 3.5 mph - N/A   Clear
3:55 PM 77.0 °F 51.8 °F 41% 30.42 in 10.0 mi Variable 4.6 mph - N/A   Clear
4:52 PM 77.0 °F 53.1 °F 43% 30.06 in 10.0 mi Variable 3.5 mph - N/A   Clear
4:55 PM 77.0 °F 53.6 °F 44% 30.42 in 10.0 mi West 6.9 mph - N/A   Clear
5:52 PM 75.9 °F 55.9 °F 50% 30.06 in 10.0 mi West 5.8 mph - N/A   Clear
5:55 PM 75.2 °F 55.4 °F 50% 30.42 in 10.0 mi Variable 6.9 mph - N/A   Clear
6:52 PM 75.9 °F 53.1 °F 45% 30.05 in 10.0 mi NW 6.9 mph - N/A   Clear
6:55 PM 75.2 °F 53.6 °F 47% 30.42 in 10.0 mi NW 6.9 mph - N/A   Clear
7:52 PM 73.9 °F 55.0 °F 52% 30.03 in 10.0 mi WNW 4.6 mph - N/A   Clear
7:55 PM 73.4 °F 55.4 °F 53% 30.42 in 10.0 mi NW 5.8 mph - N/A   Clear
8:52 PM 71.1 °F 52.0 °F 51% 30.04 in 10.0 mi Calm Calm - N/A   Clear
8:55 PM 71.6 °F 51.8 °F 50% 30.42 in 10.0 mi Calm Calm - N/A   Clear
9:52 PM 71.1 °F 52.0 °F 51% 30.05 in 10.0 mi North 3.5 mph - N/A   Clear
9:55 PM 71.6 °F 51.8 °F 50% 30.42 in 10.0 mi North 3.5 mph - N/A   Clear
10:52 PM 70.0 °F 54.0 °F 57% 30.06 in 10.0 mi ENE 3.5 mph - N/A   Clear
10:55 PM 69.8 °F 53.6 °F 56% 30.42 in 10.0 mi Calm Calm - N/A   Clear
11:52 PM 72.0 °F 54.0 °F 53% 30.03 in 10.0 mi NNW 3.5 mph - N/A   Clear
11:55 PM 71.6 °F 53.6 °F 53% 30.42 in 10.0 mi NNW 3.5 mph - N/A   Clear